This demonstration page uses our WeatherBlox Daily Observations layout. Learn more.

Left ArrowRight Arrow

Hourly Observations for April 30, 2018

Temp ( °F °C ) Dew Point ( °F °C ) Humidity (%) Winds ( mph kmh ) Pressure ( in mb ) Visibility ( mi km ) Precip ( " mm )
12:59 am 00:59 Clear 52 11.1 34 1.1 50 50 N 7 11 30.21 1023 10 16 0.00 0.00
1:59 am 01:59 Clear 52 11.1 34 1.1 50 50 NNW 9 15 30.21 1023 10 16 0.00 0.00
2:59 am 02:59 Clear 50 10 35 1.7 57 57 NNW 8 13 30.21 1023 10 16 0.00 0.00
3:59 am 03:59 Clear 47 8.3 36 2.2 66 66 Calm 30.22 1023 10 16 0.00 0.00
4:59 am 04:59 Clear 42 5.6 35 1.7 76 76 Calm 30.22 1023 10 16 0.00 0.00
5:59 am 05:59 Clear 42 5.6 35 1.7 76 76 Calm 30.23 1024 10 16 0.00 0.00
6:59 am 06:59 Mostly Sunny 44 6.7 39 3.9 83 83 SW 5 7 30.25 1025 10 16 0.00 0.00
7:59 am 07:59 Mostly Sunny 53 11.7 36 2.2 52 52 WSW 7 11 30.26 1025 10 16 0.00 0.00
8:59 am 08:59 Sunny 56 13.3 36 2.2 47 47 W 10 17 30.26 1025 10 16 0.00 0.00
9:59 am 09:59 Mostly Sunny 58 14.4 33 0.6 39 39 WNW 15 24 30.27 1025 10 16 0.00 0.00
10:59 am 10:59 Mostly Sunny 60 15.6 32 0 35 35 WNW 16 26 30.26 1025 10 16 0.00 0.00
11:59 am 11:59 Mostly Sunny 62 16.7 23 -5 22 22 WNW 17 28 30.24 1024 10 16 0.00 0.00
12:59 pm 12:59 Mostly Sunny 63 17.2 23 -5 22 22 WNW 14 22 30.22 1023 10 16 0.00 0.00
1:59 pm 13:59 Mostly Sunny 65 18.3 25 -3.9 22 22 W 10 17 30.19 1022 10 16 0.00 0.00
2:59 pm 14:59 Sunny 68 20 23 -5 18 18 NW 14 22 30.16 1022 10 16 0.00 0.00
3:59 pm 15:59 Sunny 69 20.6 22 -5.6 17 17 WNW 8 13 30.14 1021 10 16 0.00 0.00
4:59 pm 16:59 Sunny 68 20 21 -6.1 17 17 W 8 13 30.13 1020 10 16 0.00 0.00
5:59 pm 17:59 Sunny 69 20.6 24 -4.4 18 18 W 6 9 30.12 1020 10 16 0.00 0.00
6:59 pm 18:59 Sunny 67 19.4 26 -3.3 21 21 W 7 11 30.12 1020 10 16 0.00 0.00
8:59 pm 20:59 Clear 57 13.9 35 1.7 44 44 SSW 6 9 30.13 1020 10 16 0.00 0.00
9:59 pm 21:59 Clear 59 15 33 0.6 38 38 SSW 6 9 30.14 1021 10 16 0.00 0.00
10:59 pm 22:59 Clear 60 15.6 34 1.1 38 38 SW 8 13 30.14 1021 10 16 0.00 0.00
11:59 pm 23:59 Clear 58 14.4 34 1.1 41 41 SSW 8 13 30.15 1021 10 16 0.00 0.00

Powered by AerisWeather